{"data":{"norad_id":48277,"intl_designator":"2021-036B","name":"STARLINK-2569","alt_names":[],"object_type":"PAYLOAD","status":"ACTIVE","operator":null,"country":"US","launch_date":"2021-04-29","launch_site_code":"AFETR","launch_vehicle":null,"mission":null,"orbit_class":"UNKNOWN","rcs_meters":null,"size_class":null,"mass_kg":null,"dimensions":null,"purposes":["comms"],"wikipedia_slug":null,"has_3d_model":false,"image_url":null,"decayed_at":null,"tle_current":{"epoch":"2026-09-19T06:47:50.051616Z","epoch_age_seconds":138861,"freshness":"FRESH","line1":"1 48277U 21036B   26262.28321819  .00042516  00000+0  10795-2 0  9993","line2":"2 48277  53.1202 189.0535 0004294  91.5310 268.6186 15.39254720298972","mean_motion":15.3925472,"eccentricity":0.0004294,"inclination_deg":53.1202,"raan_deg":189.0535,"arg_perigee_deg":91.531,"mean_anomaly_deg":268.6186,"bstar":0.0010795,"rev_number":29897,"period_min":93.551767702229,"perigee_km":445.38064959908,"apogee_km":451.24320393739,"semimajor_km":6826.4489267682,"source":"CELESTRAK","updated_at":"2026-09-20T09:00:38.927482Z"}}}